{"data":{"norad_id":60587,"epoch":"2026-09-21T20:11:26.854656Z","epoch_age_seconds":72518,"freshness":"FRESH","line1":"1 60587U 24150E   26264.84128304 -.00000227  00000+0  44268-5 0  9998","line2":"2 60587  53.1591 111.6276 0001225  91.7643 268.3500 15.34385652118057","mean_motion":15.34385652,"eccentricity":0.0001225,"inclination_deg":53.1591,"raan_deg":111.6276,"arg_perigee_deg":91.7643,"mean_anomaly_deg":268.35,"bstar":4.4268e-6,"rev_number":11805,"period_min":93.84863564926,"perigee_km":461.90787766561,"apogee_km":463.58389397264,"semimajor_km":6840.8828858191,"source":"CELESTRAK","updated_at":"2026-09-22T09:00:49.239164Z"}}